QPF
0.02 0.02 0.01 0.01 0.01 0.01 0.01 0.01 0.01 0.01 0.01 0.01 0.01 0.01 0.01 0.00 0.00 0.00 0.00 0.00 0.00 0.00 0.00 0.00 0.00 0.00 0.00 0.00 0.00 0.00 0.00 0.00 0.01 0.01 0.02 0.02 0.02 0.02
0.01 0.01 0.01 0.01 0.01 0.01 0.01 0.01 0.02 0.02 0.02 0.01 0.01 0.01 0.01 0.00 0.00 0.00 0.00 0.00 0.00 0.00 0.00 0.00 0.00 0.00 0.00 0.00 0.00 0.00 0.01 0.01 0.01 0.02 0.02 0.03 0.03 0.03
0.01 0.00 0.00 0.00 0.00 0.01 0.01 0.01 0.01 0.01 0.01 0.01 0.01 0.00 0.00 0.00 0.00 0.00 0.00 0.00 0.00 0.00 0.00 0.00 0.00 0.00 0.00 0.00 0.00 0.00 0.00 0.01 0.01 0.01 0.01 0.02 0.02 0.03
0.00 0.00 0.00 0.00 0.00 0.00 0.01 0.01 0.01 0.01 0.01 0.01 0.00 0.00 0.00 0.00 0.00 0.00 0.00 0.00 0.00 0.00 0.00 0.00 0.00 0.00 0.00 0.00 0.00 0.00 0.00 0.00 0.00 0.00 0.01 0.01 0.01 0.02
0.00 0.00 0.00 0.00 0.01 0.01 0.01 0.01 0.01 0.01 0.01 0.01 0.01 0.01 0.01 0.01 0.01 0.01 0.01 0.01 0.00 0.00 0.00 0.00 0.00 0.00 0.00 0.00 0.00 0.00 0.00 0.00 0.00 0.00 0.00 0.00 0.01 0.01
0.00 0.00 0.00 0.00 0.01 0.02 0.02 0.02 0.02 0.02 0.02 0.02 0.01 0.01 0.01 0.01 0.02 0.02 0.01 0.01 0.01 0.00 0.00 0.00 0.00 0.00 0.00 0.00 0.00 0.00 0.00 0.00 0.00 0.00 0.00 0.00 0.00 0.00
0.00 0.00 0.00 0.00 0.00 0.01 0.01 0.02 0.03 0.03 0.03 0.02 0.02 0.01 0.01 0.02 0.03 0.02 0.02 0.01 0.01 0.01 0.02 0.01 0.02 0.02 0.02 0.02 0.01 0.00 0.00 0.00 0.00 0.00 0.00 0.00 0.00 0.00
0.00 0.00 0.00 0.00 0.00 0.00 0.00 0.01 0.01 0.02 0.02 0.02 0.02 0.02 0.03 0.04 0.04 0.03 0.03 0.03 0.02 0.02 0.03 0.02 0.02 0.03 0.03 0.02 0.01 0.00 0.00 0.00 0.00 0.00 0.00 0.00 0.00 0.00
0.00 0.00 0.00 0.00 0.01 0.01 0.01 0.01 0.01 0.01 0.01 0.02 0.02 0.03 0.04 0.04 0.05 0.04 0.04 0.05 0.04 0.03 0.03 0.02 0.02 0.03 0.02 0.01 0.00 0.00 0.00 0.00 0.00 0.00 0.00 0.00 0.00 0.00
0.01 0.01 0.01 0.02 0.01 0.01 0.01 0.02 0.03 0.03 0.02 0.02 0.03 0.03 0.03 0.03 0.03 0.03 0.03 0.03 0.03 0.03 0.04 0.04 0.03 0.03 0.02 0.03 0.02 0.00 0.00 0.00 0.00 0.00 0.00 0.00 0.00 0.00
0.01 0.01 0.01 0.01 0.01 0.01 0.01 0.02 0.03 0.04 0.02 0.01 0.01 0.01 0.01 0.00 0.00 0.01 0.03 0.05 0.04 0.03 0.04 0.04 0.03 0.03 0.02 0.03 0.03 0.01 0.00 0.00 0.00 0.00 0.00 0.00 0.01 0.01
0.02 0.02 0.01 0.01 0.01 0.01 0.01 0.02 0.02 0.04 0.04 0.03 0.03 0.03 0.03 0.03 0.01 0.02 0.05 0.05 0.05 0.04 0.04 0.05 0.04 0.04 0.03 0.01 0.02 0.04 0.04 0.03 0.01 0.01 0.01 0.01 0.01 0.02
0.02 0.03 0.03 0.01 0.01 0.01 0.01 0.01 0.02 0.01 0.02 0.03 0.04 0.04 0.04 0.04 0.04 0.04 0.04 0.04 0.04 0.05 0.04 0.04 0.04 0.05 0.05 0.03 0.02 0.03 0.04 0.05 0.04 0.04 0.03 0.01 0.01 0.02
0.02 0.02 0.02 0.01 0.00 0.00 0.00 0.01 0.01 0.01 0.04 0.04 0.05 0.04 0.04 0.03 0.03 0.03 0.03 0.04 0.04 0.04 0.04 0.04 0.05 0.06 0.06 0.04 0.03 0.02 0.02 0.03 0.04 0.04 0.05 0.03 0.02 0.02
0.02 0.01 0.00 0.00 0.01 0.02 0.01 0.01 0.02 0.04 0.05 0.04 0.05 0.04 0.04 0.03 0.03 0.03 0.03 0.04 0.04 0.03 0.02 0.03 0.05 0.05 0.06 0.06 0.05 0.04 0.03 0.03 0.04 0.04 0.04 0.05 0.04 0.04
0.02 0.02 0.02 0.01 0.02 0.02 0.03 0.04 0.05 0.04 0.03 0.04 0.04 0.05 0.04 0.04 0.03 0.03 0.03 0.03 0.03 0.04 0.03 0.04 0.05 0.05 0.06 0.06 0.05 0.04 0.05 0.05 0.05 0.04 0.04 0.05 0.04 0.04
0.01 0.04 0.05 0.03 0.04 0.05 0.05 0.05 0.05 0.04 0.04 0.05 0.04 0.05 0.05 0.05 0.04 0.03 0.04 0.03 0.04 0.04 0.03 0.03 0.04 0.05 0.04 0.04 0.03 0.03 0.03 0.04 0.04 0.04 0.04 0.04 0.05 0.04
0.03 0.04 0.03 0.02 0.03 0.03 0.04 0.04 0.05 0.04 0.03 0.04 0.04 0.05 0.05 0.05 0.05 0.04 0.04 0.04 0.05 0.04 0.03 0.02 0.02 0.02 0.02 0.02 0.02 0.02 0.02 0.03 0.03 0.03 0.03 0.04 0.04 0.05
0.03 0.03 0.03 0.03 0.02 0.03 0.03 0.04 0.04 0.04 0.04 0.04 0.04 0.05 0.05 0.05 0.05 0.04 0.04 0.04 0.05 0.04 0.03 0.03 0.02 0.02 0.02 0.03 0.03 0.02 0.02 0.03 0.03 0.03 0.04 0.04 0.04 0.04
0.02 0.02 0.02 0.02 0.02 0.02 0.02 0.03 0.03 0.03 0.03 0.04 0.05 0.05 0.05 0.04 0.05 0.05 0.04 0.04 0.04 0.04 0.03 0.03 0.02 0.02 0.03 0.04 0.04 0.04 0.02 0.02 0.02 0.03 0.03 0.04 0.04 0.04
0.01 0.01 0.02 0.02 0.01 0.02 0.02 0.02 0.02 0.02 0.02 0.02 0.03 0.04 0.04 0.05 0.05 0.05 0.04 0.02 0.03 0.03 0.03 0.03 0.03 0.01 0.03 0.04 0.04 0.05 0.04 0.02 0.01 0.01 0.02 0.02 0.03 0.03
0.01 0.01 0.01 0.01 0.01 0.02 0.02 0.01 0.01 0.02 0.02 0.02 0.01 0.02 0.03 0.03 0.04 0.04 0.04 0.04 0.03 0.02 0.02 0.02 0.02 0.02 0.02 0.03 0.04 0.04 0.04 0.03 0.02 0.01 0.01 0.02 0.02 0.04
0.00 0.01 0.01 0.01 0.01 0.00 0.01 0.00 0.01 0.01 0.01 0.01 0.01 0.01 0.02 0.02 0.03 0.03 0.03 0.03 0.03 0.02 0.02 0.02 0.02 0.02 0.02 0.02 0.03 0.03 0.03 0.03 0.03 0.03 0.02 0.02 0.04 0.06
MSLP
1022.02 1021.82 1021.63 1021.45 1021.27 1021.09 1020.91 1020.74 1020.57 1020.42 1020.28 1020.17 1020.09 1020.06 1020.08 1020.13 1020.21 1020.30 1020.39 1020.45 1020.47 1020.44 1020.36 1020.24 1020.09 1019.92 1019.74 1019.57 1019.40 1019.24 1019.07 1018.88 1018.66 1018.42 1018.14 1017.84 1017.53 1017.24
1022.49 1022.22 1021.95 1021.69 1021.44 1021.21 1020.98 1020.75 1020.53 1020.33 1020.14 1019.97 1019.84 1019.75 1019.70 1019.68 1019.70 1019.73 1019.75 1019.76 1019.74 1019.68 1019.58 1019.46 1019.32 1019.18 1019.04 1018.92 1018.81 1018.70 1018.58 1018.43 1018.24 1018.01 1017.73 1017.41 1017.08 1016.74
1022.87 1022.53 1022.21 1021.91 1021.63 1021.36 1021.10 1020.84 1020.59 1020.35 1020.12 1019.90 1019.71 1019.56 1019.43 1019.33 1019.26 1019.20 1019.14 1019.07 1018.98 1018.86 1018.73 1018.59 1018.45 1018.33 1018.23 1018.16 1018.11 1018.06 1018.00 1017.90 1017.75 1017.55 1017.28 1016.96 1016.60 1016.23
1023.14 1022.78 1022.43 1022.11 1021.82 1021.54 1021.27 1021.01 1020.75 1020.48 1020.22 1019.97 1019.72 1019.50 1019.30 1019.11 1018.95 1018.79 1018.63 1018.46 1018.29 1018.10 1017.91 1017.74 1017.58 1017.46 1017.38 1017.34 1017.33 1017.34 1017.33 1017.28 1017.18 1017.00 1016.76 1016.44 1016.08 1015.69
1023.32 1022.95 1022.60 1022.29 1022.00 1021.73 1021.48 1021.22 1020.96 1020.69 1020.41 1020.12 1019.83 1019.55 1019.28 1019.02 1018.76 1018.51 1018.25 1018.00 1017.73 1017.47 1017.22 1016.99 1016.80 1016.66 1016.58 1016.54 1016.55 1016.58 1016.61 1016.60 1016.52 1016.38 1016.15 1015.85 1015.49 1015.09
1023.44 1023.08 1022.75 1022.45 1022.18 1021.93 1021.69 1021.44 1021.18 1020.91 1020.61 1020.30 1019.98 1019.65 1019.32 1018.99 1018.67 1018.34 1018.01 1017.68 1017.34 1017.00 1016.69 1016.40 1016.16 1015.98 1015.87 1015.82 1015.81 1015.84 1015.87 1015.87 1015.81 1015.68 1015.47 1015.18 1014.83 1014.44
1023.53 1023.20 1022.89 1022.61 1022.35 1022.11 1021.87 1021.62 1021.36 1021.07 1020.76 1020.42 1020.07 1019.71 1019.35 1018.98 1018.61 1018.24 1017.86 1017.48 1017.09 1016.70 1016.33 1015.99 1015.70 1015.47 1015.30 1015.20 1015.15 1015.15 1015.15 1015.13 1015.06 1014.94 1014.73 1014.45 1014.11 1013.73
1023.63 1023.32 1023.03 1022.75 1022.50 1022.25 1022.00 1021.73 1021.44 1021.13 1020.79 1020.43 1020.06 1019.67 1019.29 1018.90 1018.52 1018.13 1017.74 1017.34 1016.93 1016.52 1016.12 1015.74 1015.40 1015.10 1014.87 1014.70 1014.59 1014.52 1014.47 1014.41 1014.31 1014.17 1013.96 1013.69 1013.36 1012.99
1023.76 1023.46 1023.17 1022.89 1022.61 1022.33 1022.04 1021.74 1021.41 1021.05 1020.67 1020.28 1019.88 1019.49 1019.10 1018.72 1018.34 1017.98 1017.60 1017.22 1016.82 1016.41 1016.00 1015.60 1015.21 1014.87 1014.56 1014.32 1014.12 1013.97 1013.84 1013.72 1013.58 1013.40 1013.18 1012.91 1012.59 1012.24
1023.91 1023.61 1023.30 1022.99 1022.68 1022.35 1022.01 1021.64 1021.25 1020.83 1020.41 1019.98 1019.56 1019.15 1018.77 1018.41 1018.06 1017.73 1017.40 1017.06 1016.70 1016.32 1015.92 1015.51 1015.10 1014.70 1014.34 1014.02 1013.74 1013.50 1013.28 1013.09 1012.88 1012.66 1012.42 1012.14 1011.82 1011.49
1024.09 1023.76 1023.42 1023.07 1022.69 1022.30 1021.89 1021.45 1020.98 1020.51 1020.03 1019.56 1019.12 1018.70 1018.33 1017.99 1017.69 1017.40 1017.13 1016.84 1016.53 1016.19 1015.82 1015.41 1014.99 1014.57 1014.16 1013.77 1013.41 1013.08 1012.79 1012.51 1012.25 1011.98 1011.70 1011.41 1011.10 1010.79
1024.25 1023.88 1023.49 1023.08 1022.64 1022.18 1021.69 1021.18 1020.65 1020.12 1019.59 1019.08 1018.62 1018.19 1017.83 1017.51 1017.24 1017.01 1016.78 1016.55 1016.29 1016.00 1015.66 1015.28 1014.86 1014.42 1013.97 1013.53 1013.11 1012.72 1012.35 1012.01 1011.68 1011.36 1011.05 1010.74 1010.44 1010.13
1024.37 1023.95 1023.50 1023.02 1022.52 1021.99 1021.44 1020.87 1020.29 1019.70 1019.14 1018.60 1018.11 1017.69 1017.32 1017.02 1016.78 1016.57 1016.38 1016.19 1015.98 1015.72 1015.42 1015.07 1014.66 1014.23 1013.77 1013.30 1012.84 1012.40 1011.98 1011.58 1011.21 1010.85 1010.51 1010.18 1009.86 1009.56
1024.42 1023.93 1023.42 1022.88 1022.33 1021.74 1021.14 1020.53 1019.91 1019.30 1018.71 1018.15 1017.65 1017.22 1016.85 1016.55 1016.32 1016.12 1015.95 1015.78 1015.60 1015.37 1015.10 1014.78 1014.40 1013.98 1013.54 1013.07 1012.60 1012.14 1011.69 1011.27 1010.86 1010.47 1010.09 1009.74 1009.41 1009.11
1024.37 1023.82 1023.25 1022.66 1022.06 1021.44 1020.82 1020.18 1019.55 1018.93 1018.33 1017.77 1017.26 1016.82 1016.44 1016.13 1015.88 1015.68 1015.51 1015.34 1015.16 1014.96 1014.71 1014.42 1014.08 1013.69 1013.28 1012.84 1012.39 1011.94 1011.50 1011.06 1010.64 1010.23 1009.84 1009.46 1009.11 1008.79
1024.21 1023.60 1022.99 1022.36 1021.74 1021.11 1020.48 1019.85 1019.22 1018.61 1018.02 1017.46 1016.95 1016.49 1016.10 1015.77 1015.49 1015.26 1015.06 1014.88 1014.70 1014.50 1014.27 1014.01 1013.71 1013.38 1013.01 1012.63 1012.23 1011.82 1011.40 1010.99 1010.57 1010.16 1009.76 1009.36 1008.99 1008.64
1023.97 1023.32 1022.67 1022.03 1021.41 1020.78 1020.17 1019.56 1018.96 1018.36 1017.78 1017.23 1016.72 1016.25 1015.83 1015.47 1015.15 1014.88 1014.65 1014.44 1014.24 1014.03 1013.82 1013.59 1013.33 1013.06 1012.76 1012.44 1012.11 1011.77 1011.41 1011.03 1010.65 1010.25 1009.85 1009.44 1009.05 1008.67
1023.69 1023.02 1022.36 1021.73 1021.12 1020.52 1019.94 1019.36 1018.79 1018.22 1017.66 1017.11 1016.59 1016.10 1015.65 1015.25 1014.89 1014.57 1014.29 1014.05 1013.82 1013.61 1013.40 1013.20 1012.99 1012.77 1012.54 1012.30 1012.05 1011.78 1011.49 1011.17 1010.83 1010.47 1010.08 1009.69 1009.28 1008.89
1023.42 1022.76 1022.12 1021.52 1020.94 1020.38 1019.84 1019.30 1018.75 1018.21 1017.66 1017.11 1016.58 1016.06 1015.58 1015.13 1014.72 1014.36 1014.03 1013.75 1013.49 1013.27 1013.06 1012.88 1012.70 1012.54 1012.37 1012.20 1012.02 1011.83 1011.61 1011.36 1011.08 1010.77 1010.42 1010.04 1009.65 1009.25
1023.24 1022.61 1022.02 1021.46 1020.93 1020.42 1019.92 1019.41 1018.89 1018.36 1017.81 1017.26 1016.70 1016.15 1015.63 1015.13 1014.68 1014.26 1013.90 1013.57 1013.29 1013.05 1012.85 1012.67 1012.51 1012.38 1012.26 1012.14 1012.02 1011.89 1011.73 1011.55 1011.33 1011.08 1010.78 1010.45 1010.09 1009.72
1023.19 1022.63 1022.10 1021.61 1021.13 1020.67 1020.21 1019.73 1019.22 1018.69 1018.13 1017.55 1016.96 1016.38 1015.81 1015.28 1014.78 1014.32 1013.92 1013.56 1013.26 1012.99 1012.77 1012.59 1012.44 1012.31 1012.20 1012.11 1012.02 1011.93 1011.82 1011.69 1011.53 1011.34 1011.11 1010.84 1010.54 1010.22
1023.30 1022.83 1022.38 1021.96 1021.54 1021.13 1020.70 1020.23 1019.73 1019.18 1018.60 1017.99 1017.36 1016.74 1016.13 1015.55 1015.01 1014.53 1014.09 1013.71 1013.38 1013.10 1012.86 1012.65 1012.48 1012.33 1012.21 1012.11 1012.02 1011.93 1011.85 1011.75 1011.64 1011.51 1011.34 1011.15 1010.93 1010.68
1023.57 1023.19 1022.82 1022.48 1022.12 1021.75 1021.34 1020.87 1020.36 1019.79 1019.17 1018.52 1017.85 1017.19 1016.54 1015.93 1015.37 1014.86 1014.41 1014.01 1013.67 1013.36 1013.09 1012.85 1012.64 1012.45 1012.29 1012.15 1012.02 1011.92 1011.82 1011.73 1011.65 1011.56 1011.46 1011.35 1011.22 1011.07
Thickness
5586 5583 5581 5578 5575 5572 5569 5566 5564 5564 5563 5558 5551 5546 5539 5535 5531 5528 5526 5525 5521 5517 5514 5511 5508 5507 5505 5503 5502 5500 5499 5498 5497 5496 5496 5496 5496 5497
5568 5566 5563 5562 5558 5555 5552 5548 5544 5541 5540 5538 5531 5527 5520 5516 5515 5513 5512 5510 5508 5505 5501 5497 5494 5493 5491 5489 5487 5486 5485 5484 5483 5482 5482 5481 5482 5482
5552 5550 5546 5542 5541 5538 5534 5530 5525 5521 5518 5517 5513 5509 5504 5501 5500 5499 5498 5498 5498 5495 5490 5485 5482 5480 5478 5477 5475 5474 5473 5471 5470 5469 5468 5468 5468 5469
5536 5532 5529 5525 5520 5518 5514 5511 5507 5501 5498 5496 5494 5493 5490 5488 5487 5485 5486 5486 5484 5483 5479 5475 5473 5471 5469 5467 5465 5464 5462 5460 5459 5457 5456 5456 5456 5456
5519 5515 5511 5507 5503 5499 5494 5492 5489 5486 5482 5480 5479 5478 5477 5477 5475 5475 5475 5473 5472 5473 5471 5470 5467 5464 5462 5460 5459 5456 5454 5452 5450 5448 5447 5446 5446 5446
5502 5498 5493 5488 5484 5480 5478 5475 5472 5469 5467 5466 5467 5467 5466 5466 5465 5465 5466 5465 5464 5464 5464 5463 5462 5460 5459 5456 5454 5451 5448 5445 5443 5441 5440 5439 5438 5438
5488 5483 5478 5470 5464 5461 5459 5458 5456 5455 5455 5456 5456 5457 5457 5456 5455 5455 5456 5456 5457 5457 5457 5458 5458 5458 5456 5454 5450 5446 5442 5439 5437 5435 5434 5433 5433 5432
5474 5469 5465 5461 5454 5448 5445 5441 5439 5441 5444 5444 5447 5448 5448 5448 5447 5447 5447 5448 5450 5451 5451 5452 5452 5452 5451 5449 5445 5440 5437 5434 5432 5430 5429 5428 5427 5427
5462 5458 5455 5452 5445 5442 5439 5437 5436 5434 5432 5434 5438 5440 5442 5442 5441 5442 5442 5442 5444 5446 5445 5448 5448 5447 5446 5445 5440 5436 5432 5429 5427 5425 5424 5423 5422 5422
5453 5448 5444 5440 5436 5430 5431 5434 5436 5436 5434 5433 5435 5437 5438 5437 5436 5436 5437 5439 5441 5443 5442 5442 5443 5442 5443 5441 5437 5432 5429 5426 5423 5421 5419 5418 5418 5418
5447 5442 5437 5434 5427 5424 5427 5432 5435 5436 5435 5434 5434 5435 5434 5433 5431 5433 5436 5437 5440 5442 5440 5438 5438 5437 5438 5438 5435 5430 5427 5423 5420 5418 5416 5414 5414 5414
5444 5439 5433 5428 5424 5423 5426 5430 5433 5435 5436 5438 5438 5438 5437 5437 5434 5432 5434 5435 5437 5438 5438 5433 5433 5431 5432 5434 5432 5429 5425 5421 5418 5416 5413 5411 5410 5411
5440 5437 5434 5428 5426 5425 5425 5429 5430 5429 5435 5438 5441 5442 5442 5440 5439 5436 5435 5434 5434 5435 5434 5430 5430 5428 5425 5427 5429 5427 5424 5420 5417 5414 5412 5409 5407 5406
5436 5435 5434 5429 5428 5428 5429 5430 5429 5430 5436 5440 5442 5443 5443 5442 5440 5438 5436 5435 5433 5432 5431 5429 5428 5426 5425 5425 5425 5425 5422 5419 5415 5413 5411 5408 5406 5404
5435 5432 5431 5431 5431 5434 5432 5432 5432 5437 5439 5441 5441 5442 5442 5441 5440 5439 5439 5438 5437 5435 5434 5431 5429 5427 5426 5424 5423 5422 5420 5418 5415 5412 5410 5408 5406 5404
5436 5436 5435 5435 5435 5435 5436 5437 5438 5439 5438 5439 5441 5441 5442 5442 5442 5441 5441 5440 5440 5439 5436 5433 5431 5429 5427 5426 5424 5421 5418 5416 5414 5413 5410 5407 5404 5402
5432 5438 5440 5441 5441 5440 5440 5440 5440 5440 5441 5441 5441 5443 5444 5444 5444 5443 5442 5441 5441 5440 5439 5437 5435 5432 5429 5424 5423 5420 5418 5416 5414 5412 5410 5408 5405 5402
5433 5439 5440 5440 5440 5441 5440 5440 5440 5440 5440 5441 5442 5443 5443 5444 5445 5445 5444 5443 5441 5440 5439 5438 5437 5436 5432 5427 5418 5419 5417 5416 5415 5413 5411 5410 5407 5403
5438 5439 5439 5439 5438 5439 5439 5439 5439 5439 5439 5441 5442 5442 5443 5445 5445 5445 5445 5444 5443 5442 5441 5438 5436 5434 5431 5428 5424 5417 5417 5417 5416 5415 5413 5410 5407 5405
5439 5438 5437 5437 5436 5436 5437 5437 5438 5439 5440 5441 5442 5442 5443 5444 5445 5445 5445 5443 5444 5443 5442 5440 5437 5434 5431 5428 5425 5422 5416 5416 5417 5416 5415 5414 5411 5407
5436 5436 5435 5435 5435 5435 5435 5436 5437 5438 5439 5440 5441 5441 5442 5443 5444 5445 5445 5442 5443 5445 5444 5441 5438 5434 5434 5433 5430 5426 5421 5416 5414 5413 5414 5417 5414 5411
5433 5433 5433 5433 5433 5434 5435 5436 5437 5438 5438 5439 5440 5440 5441 5443 5444 5445 5445 5446 5446 5446 5445 5443 5442 5441 5440 5437 5435 5432 5428 5423 5417 5414 5412 5410 5410 5409
5430 5430 5432 5432 5432 5432 5432 5433 5434 5436 5436 5436 5437 5438 5440 5442 5443 5444 5445 5445 5445 5445 5446 5445 5445 5444 5443 5441 5440 5437 5434 5432 5428 5423 5418 5412 5410 5407